Location: Antioch Baptist Church
(32.6696°N, 85.7327°W)
Time: 19:49:55
(UTC+00:00)

Cosmos 1980 Rocket - Pass Details

Date: 14 July 2020
Orbit: 828 x 851 km, 71.0° (Epoch: 13 August)

Event Time Altitude Azimuth Distance (km) Brightness Sun altitude
Rises 08:31:29 0° 342° (NNW) 3,419 5.8 -23.3°
Reaches altitude 10° 08:33:59 10° 346° (NNW) 2,479 5.0 -22.9°
Maximum altitude 08:39:39 67° 68° (ENE) 918 2.5 -22.1°
Drops below altitude 10° 08:45:15 10° 151° (SSE) 2,455 4.4 -21.3°
Sets 08:47:42 0° 154° (SSE) 3,383 5.1 -21.0°
